This demonstration page uses our WeatherBlox Daily Observations layout. Learn more.

Left ArrowRight Arrow

39.01783, -85.05884

Hourly Observations for July 12, 2021

Temp ( °F °C ) Dew Point ( °F °C ) Humidity (%) Winds ( mph kmh ) Pressure ( in mb ) Visibility ( mi km ) Precip ( " mm )
12:52 am 00:52 Cloudy 74 23.3 68 20 82 82 SSW 6 9 29.95 1014 10 16 0.00 0.00
1:52 am 01:52 Mostly Cloudy 73 22.8 69 20.6 87 87 SW 5 7 29.94 1014 10 16 0.00 0.00
2:52 am 02:52 Mostly Cloudy 72 22.2 68 20 87 87 W 6 9 29.95 1014 10 16 0.00 0.00
3:52 am 03:52 Cloudy 70 21.1 68 20 93 93 SSE 3 6 29.96 1015 10 16 0.00 0.00
4:52 am 04:52 Cloudy 72 22.2 69 20.6 91 91 S 6 9 29.97 1015 10 16 0.00 0.00
5:52 am 05:52 Cloudy 72 22.2 69 20.6 91 91 S 8 13 29.97 1015 10 16 0.00 0.00
6:10 am 06:10 Cloudy 72 22.2 69 20.6 91 91 S 9 15 29.98 1015 10 16 0.00 0.00
6:52 am 06:52 Cloudy 72 22.2 69 20.6 91 91 S 8 13 29.99 1016 8 13 0.00 0.00
7:52 am 07:52 Cloudy 73 22.8 70 21.1 90 90 S 8 13 30.00 1016 10 16 0.00 0.00
8:52 am 08:52 Cloudy with Rain 73 22.8 70 21.1 90 90 S 8 13 30.01 1016 5 8 0.00 0.00
9:52 am 09:52 Cloudy 74 23.3 69 20.6 85 85 S 9 15 30.04 1017 10 16 0.01 0.25
10:24 am 10:24 Cloudy 75 23.9 70 21.1 84 84 S 10 17 30.04 1017 10 16 0.00 0.00
10:52 am 10:52 Cloudy 76 24.4 70 21.1 82 82 S 12 19 30.04 1017 10 16 0.00 0.00
11:24 am 11:24 Cloudy with Light Rain 76 24.4 70 21.1 82 82 SSW 9 15 30.04 1017 9 14 0.00 0.00
11:46 am 11:46 Cloudy with Light Rain 75 24 70 21 83 83 S 9 15 30.04 1017 6 10 0.00 0.00
11:52 am 11:52 Cloudy with Light Rain 75 23.9 70 21.1 84 84 S 9 15 30.05 1018 7 11 0.00 0.00
12:08 pm 12:08 Cloudy 77 25 71 21.7 82 82 SSW 7 11 30.04 1017 10 16 0.01 0.25
12:52 pm 12:52 Cloudy 79 26.1 70 21.1 74 74 S 15 24 30.05 1018 10 16 0.01 0.25
1:52 pm 13:52 Cloudy 79 26.1 71 21.7 77 77 S 12 19 30.04 1017 10 16 0.02 0.51
2:04 pm 14:04 Cloudy 79 26.1 71 21.7 77 77 SSW 10 17 30.03 1017 10 16 0.00 0.00
2:18 pm 14:18 Mostly Cloudy 80 26.7 70 21.1 71 71 S 10 17 30.03 1017 10 16 0.00 0.00
2:52 pm 14:52 Mostly Cloudy 80 26.7 70 21.1 71 71 S 13 20 30.03 1017 10 16 0.00 0.00
3:52 pm 15:52 Mostly Cloudy 83 28.3 70 21.1 65 65 SSW 9 15 30.02 1017 10 16 0.00 0.00
4:52 pm 16:52 Mostly Cloudy 83 28.3 70 21.1 65 65 S 15 24 30.00 1016 10 16 0.00 0.00
5:52 pm 17:52 Mostly Cloudy 83 28.3 68 20 61 61 S 15 24 29.99 1016 10 16 0.00 0.00
6:52 pm 18:52 Mostly Cloudy 82 27.8 68 20 63 63 SSW 12 19 30.00 1016 10 16 0.00 0.00
7:52 pm 19:52 Mostly Cloudy 79 26.1 69 20.6 72 72 S 6 9 30.01 1016 10 16 0.00 0.00
8:52 pm 20:52 Mostly Cloudy 78 25.6 69 20.6 74 74 S 8 13 30.01 1016 10 16 0.00 0.00
9:47 pm 21:47 Mostly Cloudy with Strong Thunderstorms 75 24 70 21 83 83 SSW 14 22 30.03 1017 3 4 0.03 0.76
9:52 pm 21:52 Mostly Cloudy with Thunderstorms 74 23.3 69 20.6 85 85 SSW 10 17 30.04 1017 3 5 0.07 1.78
10:31 pm 22:31 Cloudy with Nearby Thunderstorms 72 22.2 68 20 87 87 S 6 9 30.05 1018 10 16 0.10 2.54
10:40 pm 22:40 Mostly Cloudy 72 22.2 68 20 87 87 SSE 6 9 30.04 1017 10 16 0.10 2.54
10:52 pm 22:52 Mostly Cloudy 72 22.2 68 20 87 87 SSE 5 7 30.05 1018 10 16 0.10 2.54
11:52 pm 23:52 Cloudy 73 22.8 69 20.6 87 87 SE 6 9 30.05 1018 10 16 0.00 0.00

Powered by AerisWeather